EZY84DE EGMC-EGJJ

Flight info

Callsign EZY84DE
Flight time 0h 48m
Altitude 19000
Route DET M604 LYD M189 NEVIL DCT ORTAC
Aircraft A320/M-SDE2E3FGHIJ1RWXYZ/LB1

Departure

Time 2026-04-19 05:30
Airport London Southend Airport (EGMC)

Arrival

Time 2026-04-19 06:18
Airport Jersey Airport (EGJJ)
Time Latitude Longitude Altitude Speed Heading
2026-04-19 05:02 51.56927 0.70272 52 ft 0 kts 93°
2026-04-19 05:22 51.56927 0.70269 54 ft 2 kts 93°
2026-04-19 05:22 51.56928 0.70243 44 ft 2 kts 93°
2026-04-19 05:23 51.56928 0.70216 45 ft 2 kts 73°
2026-04-19 05:23 51.56921 0.70192 48 ft 2 kts 59°
2026-04-19 05:23 51.56916 0.70180 54 ft 0 kts 27°
2026-04-19 05:26 51.56957 0.70197 50 ft 12 kts 10°
2026-04-19 05:26 51.57049 0.70211 54 ft 15 kts
2026-04-19 05:26 51.57159 0.70223 54 ft 16 kts
2026-04-19 05:26 51.57260 0.70244 54 ft 14 kts 26°
2026-04-19 05:27 51.57325 0.70372 54 ft 16 kts 54°
2026-04-19 05:27 51.57406 0.70451 54 ft 11 kts 11°
2026-04-19 05:27 51.57418 0.70455 54 ft 0 kts 11°
2026-04-19 05:28 51.57457 0.70467 54 ft 10 kts 11°
2026-04-19 05:28 51.57529 0.70485 53 ft 8 kts 353°
2026-04-19 05:28 51.57545 0.70451 54 ft 2 kts 268°
2026-04-19 05:28 51.57541 0.70438 54 ft 1 kts 242°
2026-04-19 05:29 51.57538 0.70432 54 ft 0 kts 236°
2026-04-19 05:29 51.57485 0.70307 55 ft 51 kts 235°
2026-04-19 05:29 51.57110 0.69480 54 ft 128 kts 233°
2026-04-19 05:29 51.56540 0.68180 493 ft 147 kts 237°
2026-04-19 05:30 51.55904 0.66768 1134 ft 163 kts 237°
2026-04-19 05:30 51.55200 0.65261 1752 ft 181 kts 232°
2026-04-19 05:30 51.54034 0.64206 2200 ft 210 kts 192°
2026-04-19 05:30 51.52493 0.63846 2671 ft 237 kts 187°
2026-04-19 05:31 51.50752 0.63570 3307 ft 261 kts 186°
2026-04-19 05:31 51.48880 0.63289 3816 ft 291 kts 186°
2026-04-19 05:31 51.46718 0.62935 4157 ft 322 kts 187°
2026-04-19 05:31 51.44552 0.62547 5587 ft 308 kts 188°
2026-04-19 05:32 51.42488 0.62160 7256 ft 290 kts 189°
2026-04-19 05:32 51.40495 0.61776 8511 ft 288 kts 190°
2026-04-19 05:32 51.38494 0.61374 9557 ft 292 kts 190°
2026-04-19 05:32 51.36455 0.60955 10511 ft 299 kts 191°
2026-04-19 05:33 51.34303 0.60504 10958 ft 323 kts 191°
2026-04-19 05:33 51.32029 0.60032 11629 ft 333 kts 191°
2026-04-19 05:33 51.29703 0.59571 12489 ft 340 kts 189°
2026-04-19 05:33 51.27347 0.59225 13352 ft 346 kts 188°
2026-04-19 05:34 51.24920 0.58961 14211 ft 352 kts 187°
2026-04-19 05:34 51.22456 0.58731 14986 ft 356 kts 187°
2026-04-19 05:34 51.19963 0.58501 15778 ft 360 kts 187°
2026-04-19 05:34 51.17442 0.58254 16562 ft 364 kts 188°
2026-04-19 05:35 51.14896 0.57989 17350 ft 368 kts 188°
2026-04-19 05:35 51.12364 0.57716 18123 ft 371 kts 188°
2026-04-19 05:35 51.09766 0.57426 18845 ft 375 kts 188°
2026-04-19 05:35 51.07140 0.57129 19177 ft 378 kts 189°
2026-04-19 05:36 51.04518 0.56837 19266 ft 372 kts 188°
2026-04-19 05:36 51.02001 0.56566 19290 ft 354 kts 189°
2026-04-19 05:36 50.99561 0.56302 19293 ft 348 kts 189°
2026-04-19 05:36 50.97172 0.56039 19294 ft 347 kts 189°
2026-04-19 05:37 50.94762 0.55768 19295 ft 346 kts 189°
2026-04-19 05:37 50.92361 0.55497 19298 ft 346 kts 189°
2026-04-19 05:37 50.89954 0.55227 19302 ft 346 kts 189°
2026-04-19 05:37 50.87552 0.54959 19289 ft 346 kts 189°
2026-04-19 05:38 50.85174 0.54694 19303 ft 345 kts 189°
2026-04-19 05:38 50.82774 0.54426 19307 ft 345 kts 189°
2026-04-19 05:38 50.80369 0.54163 19308 ft 345 kts 189°
2026-04-19 05:38 50.77969 0.53902 19309 ft 345 kts 189°
2026-04-19 05:39 50.75578 0.53600 19306 ft 343 kts 194°
2026-04-19 05:39 50.73310 0.52721 19308 ft 336 kts 206°
2026-04-19 05:39 50.71227 0.51142 19309 ft 328 kts 218°
2026-04-19 05:39 50.69402 0.49019 19310 ft 324 kts 225°
2026-04-19 05:40 50.67663 0.46818 19311 ft 324 kts 225°
2026-04-19 05:40 50.65899 0.44588 19300 ft 324 kts 224°
2026-04-19 05:40 50.64134 0.42363 19284 ft 324 kts 224°
2026-04-19 05:40 50.62366 0.40149 19293 ft 324 kts 224°
2026-04-19 05:41 50.60599 0.37942 19299 ft 323 kts 224°
2026-04-19 05:41 50.58835 0.35733 19303 ft 323 kts 224°
2026-04-19 05:41 50.57095 0.33554 19306 ft 323 kts 224°
2026-04-19 05:41 50.55332 0.31346 19312 ft 323 kts 224°
2026-04-19 05:42 50.53569 0.29139 19320 ft 323 kts 224°
2026-04-19 05:42 50.51809 0.26937 19316 ft 323 kts 224°
2026-04-19 05:42 50.50045 0.24732 19314 ft 323 kts 224°
2026-04-19 05:42 50.48303 0.22560 19316 ft 323 kts 224°
2026-04-19 05:43 50.46540 0.20368 19315 ft 323 kts 224°
2026-04-19 05:43 50.44766 0.18165 19320 ft 323 kts 224°
2026-04-19 05:43 50.43001 0.15971 19320 ft 323 kts 224°
2026-04-19 05:43 50.41240 0.13783 19306 ft 323 kts 224°
2026-04-19 05:44 50.39500 0.11623 19310 ft 322 kts 224°
2026-04-19 05:44 50.37741 0.09443 19311 ft 322 kts 224°
2026-04-19 05:44 50.35983 0.07266 19315 ft 322 kts 224°
2026-04-19 05:44 50.34226 0.05091 19316 ft 322 kts 225°
2026-04-19 05:45 50.32707 0.02598 19309 ft 312 kts 242°
2026-04-19 05:45 50.31845 -0.00439 19310 ft 303 kts 259°
2026-04-19 05:45 50.31360 -0.03640 19300 ft 302 kts 261°
2026-04-19 05:45 50.30881 -0.06860 19297 ft 303 kts 261°
2026-04-19 05:46 50.30309 -0.09994 19300 ft 306 kts 252°
2026-04-19 05:46 50.29490 -0.13081 19300 ft 307 kts 252°
2026-04-19 05:46 50.28660 -0.16157 19302 ft 307 kts 251°
2026-04-19 05:46 50.27822 -0.19230 19305 ft 307 kts 251°
2026-04-19 05:47 50.26980 -0.22310 19307 ft 307 kts 251°
2026-04-19 05:47 50.26140 -0.25383 19308 ft 307 kts 251°
2026-04-19 05:47 50.25296 -0.28461 19310 ft 307 kts 251°
2026-04-19 05:47 50.24465 -0.31497 19311 ft 307 kts 251°
2026-04-19 05:48 50.23623 -0.34575 19312 ft 307 kts 251°
2026-04-19 05:48 50.22780 -0.37652 19314 ft 307 kts 251°
2026-04-19 05:48 50.21936 -0.40737 19316 ft 308 kts 251°
2026-04-19 05:48 50.21106 -0.43775 19317 ft 308 kts 251°
2026-04-19 05:49 50.20265 -0.46847 19321 ft 308 kts 251°
2026-04-19 05:49 50.19418 -0.49932 19323 ft 308 kts 251°
2026-04-19 05:49 50.18572 -0.53008 19311 ft 308 kts 251°
2026-04-19 05:49 50.17725 -0.56073 19324 ft 308 kts 251°
2026-04-19 05:50 50.16876 -0.59133 19327 ft 307 kts 251°
2026-04-19 05:50 50.16034 -0.62165 19329 ft 307 kts 251°
2026-04-19 05:50 50.15183 -0.65237 19332 ft 307 kts 251°
2026-04-19 05:50 50.14333 -0.68307 19328 ft 307 kts 251°
2026-04-19 05:51 50.13496 -0.71329 19329 ft 307 kts 251°
2026-04-19 05:51 50.12645 -0.74380 19341 ft 307 kts 251°
2026-04-19 05:51 50.11790 -0.77444 19327 ft 307 kts 251°
2026-04-19 05:51 50.10938 -0.80499 19328 ft 307 kts 251°
2026-04-19 05:52 50.10091 -0.83548 19333 ft 307 kts 251°
2026-04-19 05:52 50.09243 -0.86594 19327 ft 306 kts 251°
2026-04-19 05:52 50.08399 -0.89609 19328 ft 306 kts 251°
2026-04-19 05:52 50.07542 -0.92655 19328 ft 306 kts 251°
2026-04-19 05:53 50.06683 -0.95705 19329 ft 306 kts 251°
2026-04-19 05:53 50.05831 -0.98743 19325 ft 306 kts 251°
2026-04-19 05:53 50.04991 -1.01745 19327 ft 306 kts 251°
2026-04-19 05:53 50.04128 -1.04818 19205 ft 306 kts 251°
2026-04-19 05:54 50.03286 -1.07809 18954 ft 304 kts 251°
2026-04-19 05:54 50.02434 -1.10823 18690 ft 303 kts 251°
2026-04-19 05:54 50.01584 -1.13824 18390 ft 302 kts 251°
2026-04-19 05:54 50.00736 -1.16813 18059 ft 301 kts 251°
2026-04-19 05:55 49.99903 -1.19749 17740 ft 300 kts 251°
2026-04-19 05:55 49.99052 -1.22748 17410 ft 299 kts 251°
2026-04-19 05:55 49.98225 -1.25664 17090 ft 298 kts 251°
2026-04-19 05:55 49.97391 -1.28606 16723 ft 297 kts 251°
2026-04-19 05:56 49.96463 -1.31481 16414 ft 297 kts 246°
2026-04-19 05:56 49.95806 -1.33348 16227 ft 297 kts 246°
2026-04-19 05:56 49.94790 -1.36135 15971 ft 295 kts 245°
2026-04-19 05:56 49.93765 -1.38900 15712 ft 294 kts 245°
2026-04-19 05:57 49.92741 -1.41661 15455 ft 293 kts 245°
2026-04-19 05:57 49.91726 -1.44404 15207 ft 293 kts 245°
2026-04-19 05:57 49.90712 -1.47147 14966 ft 292 kts 245°
2026-04-19 05:57 49.89717 -1.49851 14720 ft 291 kts 245°
2026-04-19 05:58 49.88716 -1.52585 14482 ft 291 kts 245°
2026-04-19 05:58 49.87718 -1.55313 14240 ft 290 kts 245°
2026-04-19 05:58 49.86719 -1.58034 13986 ft 289 kts 245°
2026-04-19 05:58 49.85720 -1.60745 13712 ft 289 kts 245°
2026-04-19 05:59 49.84739 -1.63409 13447 ft 288 kts 245°
2026-04-19 05:59 49.83744 -1.66107 13187 ft 287 kts 245°
2026-04-19 05:59 49.82754 -1.68791 12924 ft 287 kts 245°
2026-04-19 05:59 49.81759 -1.71482 12662 ft 286 kts 244°
2026-04-19 06:00 49.80767 -1.74161 12401 ft 286 kts 244°
2026-04-19 06:00 49.79779 -1.76829 12151 ft 285 kts 244°
2026-04-19 06:00 49.78805 -1.79462 11892 ft 285 kts 244°
2026-04-19 06:00 49.77820 -1.82124 11626 ft 284 kts 244°
2026-04-19 06:01 49.76839 -1.84769 11383 ft 283 kts 244°
2026-04-19 06:01 49.75853 -1.87424 11130 ft 283 kts 244°
2026-04-19 06:01 49.74878 -1.90035 10890 ft 277 kts 244°
2026-04-19 06:01 49.73926 -1.92586 10642 ft 271 kts 244°
2026-04-19 06:02 49.72994 -1.95084 10392 ft 265 kts 244°
2026-04-19 06:02 49.72091 -1.97505 10148 ft 260 kts 244°
2026-04-19 06:02 49.71197 -1.99904 9882 ft 255 kts 244°
2026-04-19 06:02 49.70312 -2.02256 9616 ft 250 kts 244°
2026-04-19 06:03 49.69441 -2.04569 9351 ft 246 kts 244°
2026-04-19 06:03 49.68593 -2.06832 9085 ft 241 kts 244°
2026-04-19 06:03 49.67772 -2.09033 8832 ft 237 kts 244°
2026-04-19 06:03 49.66930 -2.11209 8575 ft 234 kts 241°
2026-04-19 06:04 49.66061 -2.13323 8316 ft 231 kts 240°
2026-04-19 06:04 49.65204 -2.15406 8059 ft 228 kts 240°
2026-04-19 06:04 49.64360 -2.17467 7814 ft 225 kts 240°
2026-04-19 06:04 49.63528 -2.19501 7559 ft 223 kts 240°
2026-04-19 06:05 49.62719 -2.21490 7352 ft 215 kts 241°
2026-04-19 06:05 49.61841 -2.23312 7099 ft 208 kts 232°
2026-04-19 06:05 49.60898 -2.24968 6832 ft 204 kts 230°
2026-04-19 06:05 49.59969 -2.26575 6580 ft 203 kts 231°
2026-04-19 06:06 49.59026 -2.28202 6310 ft 203 kts 231°
2026-04-19 06:06 49.58097 -2.29826 6070 ft 201 kts 230°
2026-04-19 06:06 49.57179 -2.31454 5833 ft 201 kts 231°
2026-04-19 06:06 49.56254 -2.33079 5608 ft 202 kts 230°
2026-04-19 06:07 49.55232 -2.34545 5457 ft 202 kts 211°
2026-04-19 06:07 49.53889 -2.35183 5306 ft 204 kts 188°
2026-04-19 06:07 49.52477 -2.35508 5154 ft 204 kts 187°
2026-04-19 06:07 49.51093 -2.35819 4997 ft 202 kts 187°
2026-04-19 06:08 49.49702 -2.36127 4841 ft 201 kts 187°
2026-04-19 06:08 49.48318 -2.36436 4682 ft 201 kts 187°
2026-04-19 06:08 49.46935 -2.36745 4520 ft 200 kts 187°
2026-04-19 06:08 49.45564 -2.37049 4372 ft 199 kts 187°
2026-04-19 06:09 49.44194 -2.37352 4216 ft 198 kts 186°
2026-04-19 06:09 49.42831 -2.37654 4057 ft 197 kts 186°
2026-04-19 06:09 49.41469 -2.37957 3908 ft 199 kts 187°
2026-04-19 06:09 49.40162 -2.38250 3747 ft 185 kts 187°
2026-04-19 06:10 49.38923 -2.38529 3597 ft 177 kts 186°
2026-04-19 06:10 49.37690 -2.38803 3470 ft 178 kts 187°
2026-04-19 06:10 49.36467 -2.39075 3331 ft 177 kts 186°
2026-04-19 06:10 49.35244 -2.39347 3209 ft 178 kts 186°
2026-04-19 06:11 49.34015 -2.39621 3081 ft 178 kts 185°
2026-04-19 06:11 49.32809 -2.39889 2957 ft 176 kts 186°
2026-04-19 06:11 49.31597 -2.40159 2828 ft 175 kts 186°
2026-04-19 06:12 49.29177 -2.40696 2564 ft 172 kts 185°
2026-04-19 06:12 49.28058 -2.40944 2455 ft 157 kts 185°
2026-04-19 06:12 49.27006 -2.41177 2324 ft 149 kts 186°
2026-04-19 06:12 49.25986 -2.41403 2195 ft 146 kts 185°
2026-04-19 06:13 49.24987 -2.41625 2108 ft 144 kts 185°
2026-04-19 06:13 49.23995 -2.41844 2036 ft 145 kts 185°
2026-04-19 06:13 49.23000 -2.42063 2012 ft 145 kts 184°
2026-04-19 06:13 49.22005 -2.42277 2010 ft 143 kts 182°
2026-04-19 06:14 49.21031 -2.42115 2011 ft 140 kts 156°
2026-04-19 06:14 49.20198 -2.41403 2012 ft 136 kts 134°
2026-04-19 06:14 49.19624 -2.40316 2011 ft 132 kts 114°
2026-04-19 06:14 49.19352 -2.39005 2012 ft 128 kts 93°
2026-04-19 06:15 49.19361 -2.37658 2009 ft 127 kts 84°
2026-04-19 06:15 49.19431 -2.36313 2010 ft 127 kts 81°
2026-04-19 06:15 49.19522 -2.34971 2008 ft 127 kts 82°
2026-04-19 06:15 49.19624 -2.33622 1944 ft 128 kts 81°
2026-04-19 06:16 49.19731 -2.32281 1821 ft 128 kts 80°
2026-04-19 06:16 49.19841 -2.30939 1667 ft 127 kts 79°
2026-04-19 06:16 49.19953 -2.29597 1501 ft 126 kts 79°
2026-04-19 06:16 49.20064 -2.28271 1334 ft 125 kts 79°
2026-04-19 06:17 49.20174 -2.26954 1166 ft 125 kts 78°
2026-04-19 06:17 49.20286 -2.25632 976 ft 125 kts 80°
2026-04-19 06:17 49.20396 -2.24310 807 ft 125 kts 80°
2026-04-19 06:17 49.20508 -2.22985 637 ft 126 kts 81°
2026-04-19 06:18 49.20618 -2.21659 463 ft 127 kts 79°
2026-04-19 06:18 49.20734 -2.20331 293 ft 121 kts 80°
2026-04-19 06:18 49.20816 -2.19347 286 ft 54 kts 83°
2026-04-19 06:18 49.20855 -2.18893 283 ft 40 kts 82°
2026-04-19 06:19 49.20886 -2.18518 282 ft 27 kts 85°
2026-04-19 06:19 49.20819 -2.18379 284 ft 17 kts 187°
2026-04-19 06:19 49.20738 -2.18480 284 ft 15 kts 249°
2026-04-19 06:19 49.20722 -2.18629 284 ft 14 kts 263°
2026-04-19 06:20 49.20709 -2.18774 284 ft 13 kts 264°
2026-04-19 06:20 49.20699 -2.18913 284 ft 13 kts 263°
2026-04-19 06:20 49.20688 -2.19047 284 ft 13 kts 262°
2026-04-19 06:20 49.20679 -2.19177 284 ft 12 kts 271°
2026-04-19 06:21 49.20696 -2.19300 284 ft 11 kts 284°
2026-04-19 06:21 49.20710 -2.19416 284 ft 11 kts 271°
2026-04-19 06:21 49.20700 -2.19528 284 ft 11 kts 260°
2026-04-19 06:21 49.20676 -2.19631 284 ft 10 kts 231°
2026-04-19 06:22 49.20619 -2.19671 284 ft 6 kts 175°
2026-04-19 06:22 49.20584 -2.19651 288 ft 5 kts 157°
2026-04-19 06:22 49.20562 -2.19637 284 ft 0 kts 160°